Location: Newark
(52.8662°N, 8.1982°W)
Time: 15:18:19
(UTC+00:00)

Envisat - Visible Passes

Search period start: 15 November 2019 00:00
Search period end: 25 November 2019 00:00
Orbit: 764 x 766 km, 98.1° (Epoch: 14 November)

Date Brightness Start Highest point End Pass type
(mag) Time Alt. Az. Time Alt. Az. Time Alt. Az.
15 Nov 5.0 06:47:58 10° NNE 06:52:34 33° E 06:57:07 10° SSE visible
15 Nov 2.9 18:08:18 10° SSE 18:13:22 76° ENE 18:18:29 10° NNW visible
15 Nov 5.6 19:49:24 10° SW 19:53:00 19° W 19:56:37 10° NW visible
16 Nov 6.0 06:12:01 10° NE 06:15:23 17° E 06:18:44 10° SE visible
16 Nov 3.4 17:32:00 10° SE 17:36:44 41° ENE 17:41:30 10° N visible
16 Nov 4.6 19:11:11 10° SSW 19:15:50 36° W 19:20:32 10° NNW visible
17 Nov 4.0 07:13:14 10° NNE 07:18:14 52° E 07:23:11 10° S visible
17 Nov 3.3 18:33:49 10° S 18:38:53 69° WSW 18:43:59 10° NNW visible
17 Nov 6.1 20:17:02 10° WSW 20:18:53 12° W 20:20:45 10° WNW visible
18 Nov 5.3 06:36:51 10° NE 06:41:12 27° E 06:45:29 10° SSE visible
18 Nov 3.0 17:57:06 10° SSE 18:02:07 63° ENE 18:07:10 10° N visible
18 Nov 5.3 19:37:35 10° SW 19:41:35 23° W 19:45:37 10° NW visible
19 Nov 6.1 06:01:13 10° NE 06:03:57 14° E 06:06:40 10° ESE visible
19 Nov 3.6 17:20:59 10° SE 17:25:32 35° ENE 17:30:07 10° N visible
19 Nov 4.2 18:59:39 10° S 19:04:29 43° W 19:09:22 10° NNW visible
20 Nov 4.4 07:02:02 10° NNE 07:06:54 43° E 07:11:43 10° S visible
20 Nov 3.0 18:22:30 10° SSE 18:27:36 83° WSW 18:32:43 10° NNW visible
20 Nov 5.9 20:04:39 10° WSW 20:07:26 15° W 20:10:14 10° NW visible
21 Nov 5.6 06:25:48 10° NE 06:29:48 23° E 06:33:46 10° SE visible
21 Nov 3.1 17:45:58 10° SE 17:50:53 53° ENE 17:55:50 10° N visible
21 Nov 5.0 19:25:52 10° SSW 19:30:12 28° W 19:34:33 10° NNW visible
22 Nov 6.3 05:50:45 10° ENE 05:52:29 12° E 05:54:14 10° ESE visible
22 Nov 3.8 17:10:01 10° ESE 17:14:21 29° ENE 17:18:43 10° N visible
22 Nov 3.8 18:48:12 10° S 18:53:09 53° W 18:58:09 10° NNW visible
23 Nov 4.8 06:50:52 10° NNE 06:55:33 35° E 07:00:12 10° SSE visible
23 Nov 2.9 18:11:14 10° SSE 18:16:19 82° ENE 18:21:26 10° NNW visible
23 Nov 5.7 19:52:36 10° SW 19:56:00 18° W 19:59:25 10° NW visible
24 Nov 5.9 06:14:50 10° NE 06:18:23 19° E 06:21:56 10° SE visible
24 Nov 3.3 17:34:52 10° SE 17:39:39 44° ENE 17:44:29 10° N visible
24 Nov 4.7 19:14:14 10° SSW 19:18:49 33° W 19:23:26 10° NNW visible
